Wind_Speed
14 14 13 13 15 15 14 14 14 14 13 12 11 10 10 10 10 10 8 8 8 8 8 8 8 9 9 9 8 8 7 7 7 7 7 7 6 7 6 6 5 5 4 4 4 4 3 3 2
14 14 14 15 15 14 14 14 15 15 14 12 11 10 10 10 10 9 8 8 8 8 8 9 9 9 9 9 8 8 8 8 9 8 7 6 6 6 6 5 5 5 4 4 3 4 3 2 2
14 15 15 15 15 15 15 15 15 15 14 13 12 11 10 10 9 9 9 8 8 8 8 9 9 10 9 9 9 9 9 9 9 9 8 7 6 6 5 4 4 4 4 3 3 3 2 1 1
15 15 15 15 15 15 15 16 16 15 15 14 13 12 11 10 9 9 8 8 8 8 9 9 10 10 9 9 9 8 8 8 8 8 8 8 7 5 5 5 4 4 3 3 2 2 1 1 0
14 14 15 15 15 15 15 16 16 15 14 14 13 13 12 11 10 10 9 9 9 9 9 10 10 10 10 9 9 8 8 8 8 8 8 7 7 5 5 5 5 4 3 2 2 2 1 1 1
14 14 15 15 14 15 15 15 15 15 14 13 13 13 12 11 11 11 10 9 9 9 10 10 10 10 10 9 9 9 8 8 8 7 7 7 6 5 5 5 5 5 4 3 2 2 1 1 1
13 14 14 15 15 15 15 15 14 14 14 13 13 13 12 11 11 11 11 10 10 10 10 10 9 9 9 9 9 9 8 8 8 7 6 7 6 5 4 4 4 4 4 3 2 2 1 1 1
13 13 14 15 15 15 15 15 14 14 15 14 13 13 12 12 11 10 11 11 11 10 10 10 10 9 9 9 9 9 9 8 7 6 6 6 6 5 4 4 3 3 3 3 2 1 1 2 2
13 13 13 14 15 15 15 14 14 14 14 14 13 12 12 12 11 10 10 11 11 11 11 10 10 9 9 9 9 9 8 8 7 7 6 6 5 5 4 3 2 2 1 1 1 1 1 2 2
13 14 14 13 14 15 14 14 14 14 14 13 13 12 12 12 11 11 11 10 10 11 11 11 10 10 9 9 9 9 8 7 7 6 6 5 4 4 4 4 2 1 1 1 1 2 2 2 2
12 13 13 13 13 13 13 13 14 14 13 12 12 12 12 12 12 11 11 10 11 11 10 10 10 9 9 9 9 8 8 7 6 6 5 4 4 4 4 3 2 1 1 2 2 3 2 3 3
11 11 12 13 13 13 12 13 13 13 13 13 13 13 12 12 12 11 10 10 10 10 10 9 9 9 9 8 8 7 7 7 6 5 5 4 3 3 3 3 2 1 1 2 3 4 3 3 4
10 10 11 12 13 13 13 13 13 12 12 12 13 13 12 12 11 11 10 10 9 9 9 9 9 9 8 7 7 6 6 6 5 5 4 4 4 3 3 4 3 2 2 3 4 4 4 5 5
9 10 10 11 12 12 13 12 12 11 11 12 12 13 13 12 12 11 10 9 9 9 9 9 8 8 8 8 8 7 7 6 6 5 4 4 4 3 3 4 3 3 3 3 4 4 5 6 6
8 9 9 10 11 12 12 12 11 10 10 10 11 12 13 12 11 11 10 9 9 9 8 8 8 8 7 7 7 7 6 6 6 5 5 5 4 3 3 3 4 3 3 3 4 4 5 6 6
6 8 9 9 10 11 11 11 10 9 9 10 11 12 12 12 11 11 10 9 8 8 8 8 7 7 6 6 6 6 6 6 5 5 5 5 5 4 3 3 3 3 3 4 5 5 5 6 6
4 6 8 7 7 9 10 10 10 9 9 9 10 10 11 11 11 10 9 9 8 7 7 7 6 6 6 7 6 6 6 7 6 6 5 6 6 5 4 3 3 3 4 5 5 6 6 6 7
2 3 5 5 6 7 8 8 8 8 8 8 8 9 10 10 9 9 9 8 7 7 7 6 6 6 6 6 6 6 6 6 6 7 6 6 6 5 4 3 3 4 5 6 6 6 7 7 8
2 2 2 3 4 5 6 6 6 7 7 6 7 7 8 9 8 8 7 7 7 7 7 7 6 5 5 5 6 6 6 7 6 7 7 6 6 5 4 4 5 6 6 6 7 8 9 8 8
4 3 1 1 1 3 4 4 5 6 6 6 5 6 6 7 7 7 7 7 7 6 6 6 6 5 5 5 5 6 6 6 7 7 7 7 6 6 5 5 6 6 6 7 8 8 9 9 9
5 4 3 2 2 2 2 3 4 4 5 5 4 4 5 5 5 5 5 6 7 6 6 6 6 5 6 6 5 6 6 6 7 8 8 7 7 6 6 6 6 7 7 8 9 9 9 9 9
6 5 5 4 4 4 4 4 3 4 4 4 4 4 3 4 4 5 5 5 6 6 6 7 7 6 6 6 6 6 6 7 8 8 8 8 7 7 6 6 7 8 8 9 9 10 10 10 10
7 7 6 5 5 6 6 5 5 5 5 5 5 4 3 3 4 5 4 4 5 5 6 7 7 7 7 7 7 7 7 7 8 9 9 8 8 7 7 7 8 9 9 10 10 11 11 12 12
9 9 8 7 8 8 8 8 7 7 8 7 6 5 4 4 4 4 4 4 5 5 6 7 7 7 7 8 9 9 8 8 8 9 9 9 10 9 9 9 9 10 10 11 12 13 14 14 15
12 12 12 11 11 10 10 10 9 9 9 9 8 6 6 5 5 5 4 5 5 6 7 7 8 8 8 9 9 10 9 9 9 9 10 10 11 10 10 11 11 12 12 13 14 15 16 16 16
15 15 15 14 13 13 12 12 11 12 12 11 10 9 9 8 8 7 6 6 6 7 7 8 9 9 9 9 10 10 10 10 10 10 11 11 12 12 12 13 14 14 15 16 16 17 18 18 18
17 17 17 17 16 15 14 14 13 13 13 13 12 11 11 11 10 9 8 7 7 8 8 9 10 10 10 10 11 10 10 11 12 12 13 13 13 13 14 15 16 17 18 18 18 19 19 19 19
20 18 18 18 18 17 17 16 16 15 15 14 14 13 13 13 12 12 9 9 9 10 10 11 11 11 12 12 11 11 12 12 13 14 15 14 16 16 15 16 17 18 19 20 20 20 20 21 21
21 21 21 21 21 21 20 18 17 16 16 15 14 14 14 14 14 13 12 11 11 11 11 12 13 13 13 13 13 13 14 14 14 15 15 17 17 17 18 18 19 19 20 21 21 22 22 22 22
22 22 22 22 22 22 21 19 18 18 17 16 16 16 16 15 15 14 14 13 13 13 12 14 15 15 15 15 15 15 15 16 17 18 18 18 18 19 19 19 20 21 22 22 22 23 23 23 24
Wind_Direction
80 81 78 77 78 78 76 72 69 67 62 60 57 58 59 56 55 53 54 67 73 79 85 87 87 86 85 87 88 92 94 93 88 91 97 98 103 111 114 113 109 110 115 122 120 119 116 108 111
82 80 78 78 79 78 75 72 67 63 58 56 54 55 57 55 55 53 57 68 75 82 89 91 90 87 86 86 86 93 95 92 87 88 94 100 103 108 114 109 104 103 108 115 118 115 112 111 120
85 83 80 79 77 75 72 68 66 63 59 57 56 56 58 59 55 52 58 68 75 85 88 87 87 87 86 86 85 92 98 95 87 86 89 90 96 99 100 100 98 104 107 116 129 124 121 119 124
87 83 80 77 74 72 69 65 64 64 59 57 56 56 57 59 56 54 60 70 81 89 91 88 87 86 84 83 86 90 92 94 88 87 88 87 88 95 94 82 87 99 103 121 139 132 134 151 146
86 81 76 73 72 71 68 65 62 60 56 54 54 55 58 61 61 59 65 74 82 92 94 91 89 86 85 83 83 90 90 90 90 89 87 87 88 92 89 81 81 96 99 108 136 132 114 111 105
81 78 76 74 71 69 66 63 60 57 56 54 53 53 56 61 63 65 68 74 81 88 91 92 89 87 86 84 85 87 91 92 92 89 86 83 88 89 85 88 86 88 89 93 107 115 86 103 71
82 80 77 73 70 66 66 64 60 58 58 55 51 52 56 60 65 68 70 77 82 86 89 89 87 85 82 82 84 85 85 86 85 83 83 79 80 81 78 80 84 79 80 91 109 103 69 33 336
81 82 78 74 69 63 64 64 60 59 58 56 52 53 57 61 67 71 74 78 81 83 86 86 84 81 80 80 82 79 81 85 83 77 76 77 75 72 69 75 78 75 74 78 74 77 17 354 335
80 82 79 73 71 66 63 62 60 60 57 56 54 56 58 60 66 74 77 79 81 81 82 83 83 78 76 77 78 78 77 77 77 74 75 72 70 64 56 53 52 55 54 74 35 24 5 352 342
80 82 79 74 71 65 62 62 62 60 55 56 57 58 59 59 64 74 78 81 82 81 82 82 82 83 79 76 75 76 75 75 78 78 76 72 70 61 54 44 32 20 349 352 345 354 356 340 328
82 82 80 73 67 60 57 60 62 62 58 57 58 59 61 61 65 72 75 79 81 83 83 84 83 82 79 76 72 68 65 67 77 75 71 69 67 55 43 42 31 4 322 307 309 324 333 321 313
84 84 79 71 62 57 55 58 59 61 59 56 58 61 62 62 61 64 70 74 76 80 80 82 80 79 77 74 69 65 62 62 63 59 54 53 48 33 23 20 6 357 302 296 302 301 313 311 315
83 81 73 69 62 57 55 57 58 57 57 57 58 58 57 59 59 61 67 72 74 77 79 81 77 76 76 72 66 63 64 59 52 48 42 34 22 16 6 352 347 338 307 296 299 301 306 315 314
85 83 75 70 67 59 57 57 58 56 56 56 55 54 54 56 56 59 63 69 73 77 77 78 77 76 73 68 66 64 60 57 52 43 35 29 20 10 8 6 4 2 340 326 315 310 304 304 316
89 87 81 73 67 61 58 56 52 52 52 51 52 52 50 51 53 57 59 64 71 73 72 70 69 70 68 66 62 58 54 53 49 43 34 22 12 12 17 8 11 9 1 350 337 322 309 313 315
91 87 82 76 67 61 57 54 50 47 45 46 47 46 45 49 51 55 57 63 68 68 67 64 61 60 59 61 57 50 44 44 45 36 24 14 7 4 3 9 7 359 352 344 335 326 320 316 314
97 95 92 82 68 60 56 52 48 44 42 46 47 43 44 48 50 53 56 60 61 62 59 55 53 52 53 53 49 43 38 33 30 21 12 7 5 3 3 2 359 356 343 344 340 334 326 317 314
108 107 95 74 63 60 58 50 47 43 42 48 47 43 42 43 47 55 59 58 54 50 46 44 45 43 42 40 38 33 28 26 21 12 6 5 1 356 354 347 340 345 340 335 333 330 324 320 316
200 165 110 71 59 58 61 52 43 36 38 41 44 38 34 38 42 50 52 51 52 46 41 38 39 37 30 28 25 24 25 21 18 10 3 0 354 348 344 338 332 331 330 330 329 326 326 324 319
212 221 194 91 46 48 59 43 39 38 35 35 37 31 29 34 40 41 44 45 41 38 35 28 28 28 28 21 16 18 13 8 7 4 357 353 348 346 343 336 336 334 332 331 330 330 329 325 321
222 238 227 246 304 342 17 27 21 21 28 33 30 20 20 27 38 42 41 40 34 30 27 24 21 16 14 7 5 5 6 359 355 353 352 348 347 344 338 335 335 334 331 330 331 333 330 325 321
231 241 246 271 299 319 327 345 356 360 1 7 1 1 7 20 28 32 31 32 30 29 26 21 14 7 0 350 350 352 352 351 347 345 345 347 347 343 334 327 329 331 328 326 328 332 329 324 319
232 243 254 268 289 298 299 315 335 329 325 327 329 328 335 357 6 11 22 22 22 22 17 11 5 358 355 349 341 341 345 346 346 343 338 334 332 333 332 328 325 325 324 323 324 325 322 317 314
241 249 259 271 283 286 284 294 310 315 314 314 313 309 311 319 334 343 358 3 357 355 354 356 356 355 350 345 338 340 339 337 339 337 331 328 327 324 326 324 320 319 319 320 318 319 319 313 309
246 253 261 267 274 282 284 287 296 300 304 305 303 298 296 296 307 313 321 330 333 334 335 340 341 342 339 338 336 340 337 333 334 332 325 320 321 317 317 316 317 316 315 314 313 311 313 312 307
247 254 261 267 273 279 280 283 290 293 296 299 296 290 291 288 293 293 299 307 316 321 326 328 330 330 329 330 331 333 332 327 324 322 323 318 320 314 309 309 314 313 312 310 308 306 305 306 305
247 252 259 265 270 276 279 284 288 290 291 291 290 288 290 290 291 293 295 303 313 315 316 318 318 319 319 320 322 322 323 324 319 317 322 318 320 319 315 311 312 311 308 306 305 305 306 305 304
247 252 257 262 267 273 277 281 286 288 289 288 285 287 288 285 286 288 289 294 300 305 309 312 311 312 313 315 315 314 315 317 316 316 315 317 316 316 314 312 311 309 306 304 304 304 305 308 306
247 253 259 262 265 271 276 278 284 288 289 284 282 285 287 283 282 284 288 290 293 297 303 306 307 309 309 309 309 307 307 309 309 311 309 309 311 310 310 310 309 307 303 302 303 303 303 304 304
251 256 260 263 267 270 274 278 280 284 285 282 280 282 284 283 281 281 284 289 290 291 297 302 302 302 303 302 303 303 303 304 304 305 306 308 307 305 306 307 307 305 303 302 302 302 303 303 303
Height
5886 5886 5887 5887 5887 5886 5885 5884 5883 5882 5882 5881 5881 5880 5880 5880 5880 5881 5879 5877 5877 5877 5877 5877 5877 5878 5878 5878 5878 5878 5879 5880 5880 5881 5882 5883 5884 5885 5886 5887 5887 5887 5888 5889 5889 5890 5890 5891 5891
5889 5889 5890 5889 5888 5887 5887 5886 5885 5884 5884 5883 5882 5881 5881 5881 5880 5879 5878 5878 5878 5879 5879 5878 5878 5879 5879 5879 5879 5879 5880 5881 5882 5882 5883 5884 5885 5886 5887 5887 5887 5888 5888 5889 5889 5890 5890 5891 5891
5891 5892 5892 5891 5890 5890 5889 5888 5887 5886 5885 5884 5884 5883 5883 5882 5881 5880 5880 5880 5880 5880 5880 5880 5880 5880 5880 5881 5881 5881 5882 5882 5883 5883 5884 5885 5886 5887 5887 5888 5888 5888 5888 5889 5889 5890 5890 5891 5891
5894 5895 5895 5894 5892 5892 5890 5889 5888 5887 5887 5886 5885 5884 5884 5883 5882 5882 5881 5881 5881 5881 5881 5881 5881 5881 5881 5882 5882 5882 5883 5883 5884 5885 5885 5886 5887 5887 5888 5888 5888 5888 5889 5889 5890 5890 5891 5891 5891
5897 5897 5896 5895 5894 5893 5892 5891 5890 5889 5888 5888 5887 5886 5885 5884 5883 5883 5882 5882 5882 5882 5882 5882 5883 5883 5883 5883 5883 5883 5884 5884 5885 5886 5886 5887 5887 5888 5888 5889 5889 5889 5889 5889 5890 5890 5891 5891 5891
5899 5899 5898 5897 5896 5895 5894 5893 5892 5891 5890 5890 5889 5887 5886 5886 5885 5884 5884 5884 5884 5883 5883 5884 5884 5884 5884 5884 5884 5884 5885 5886 5886 5887 5887 5888 5888 5889 5889 5889 5889 5889 5889 5889 5890 5890 5890 5891 5891
5902 5901 5900 5899 5898 5897 5896 5895 5893 5893 5892 5892 5891 5889 5888 5887 5886 5886 5885 5885 5885 5885 5885 5885 5885 5885 5885 5885 5885 5886 5886 5887 5887 5888 5888 5889 5889 5889 5889 5889 5889 5890 5890 5890 5890 5890 5890 5890 5890
5903 5903 5902 5901 5900 5899 5898 5897 5895 5895 5894 5893 5893 5891 5890 5889 5888 5888 5887 5887 5886 5886 5886 5886 5886 5887 5887 5886 5886 5887 5887 5888 5888 5889 5889 5889 5890 5890 5890 5890 5890 5890 5890 5890 5890 5890 5890 5890 5890
5905 5905 5903 5903 5902 5901 5900 5899 5898 5896 5896 5895 5894 5893 5892 5891 5890 5889 5889 5888 5888 5888 5888 5887 5888 5888 5888 5888 5888 5888 5888 5889 5889 5889 5890 5890 5890 5890 5890 5890 5890 5890 5890 5890 5890 5890 5890 5890 5889
5907 5907 5906 5905 5904 5903 5902 5901 5900 5898 5897 5897 5896 5895 5894 5893 5892 5891 5891 5890 5890 5890 5890 5889 5889 5890 5890 5890 5890 5889 5890 5890 5890 5890 5890 5890 5890 5890 5890 5890 5890 5890 5889 5889 5889 5889 5889 5889 5889
5909 5908 5908 5907 5906 5905 5904 5903 5902 5900 5900 5899 5898 5897 5896 5894 5893 5893 5892 5892 5892 5891 5891 5891 5891 5891 5891 5891 5891 5891 5891 5891 5891 5891 5891 5891 5890 5890 5890 5889 5889 5889 5889 5889 5889 5889 5889 5888 5888
5910 5910 5909 5908 5908 5907 5906 5905 5904 5902 5902 5901 5900 5898 5897 5896 5895 5894 5894 5893 5893 5893 5893 5892 5892 5892 5892 5892 5892 5892 5891 5891 5891 5891 5891 5890 5890 5890 5889 5889 5889 5888 5888 5888 5888 5888 5888 5887 5887
5912 5911 5911 5910 5909 5908 5908 5906 5906 5905 5904 5903 5901 5899 5898 5897 5896 5895 5895 5894 5894 5894 5894 5894 5893 5893 5893 5893 5892 5892 5892 5892 5891 5891 5890 5890 5890 5889 5889 5888 5888 5887 5887 5887 5887 5886 5886 5886 5886
5914 5913 5912 5911 5911 5910 5909 5908 5908 5907 5905 5904 5903 5901 5900 5899 5897 5896 5895 5895 5895 5895 5895 5895 5894 5894 5894 5894 5893 5893 5892 5892 5891 5891 5890 5890 5889 5888 5888 5887 5887 5887 5886 5886 5885 5885 5885 5884 5884
5916 5915 5914 5913 5913 5912 5911 5910 5909 5908 5907 5906 5905 5903 5901 5900 5898 5897 5897 5896 5896 5896 5896 5895 5895 5895 5895 5894 5894 5893 5893 5892 5891 5891 5890 5889 5888 5887 5887 5887 5886 5886 5885 5885 5884 5884 5884 5883 5883
5917 5917 5916 5915 5914 5913 5914 5912 5911 5909 5908 5907 5906 5904 5903 5901 5900 5899 5898 5897 5897 5897 5897 5896 5896 5896 5895 5895 5894 5894 5893 5892 5891 5890 5889 5888 5887 5887 5886 5886 5885 5885 5884 5884 5883 5883 5882 5882 5881
5918 5917 5917 5917 5915 5915 5915 5913 5913 5911 5909 5908 5907 5906 5904 5903 5901 5900 5899 5898 5898 5898 5898 5897 5897 5896 5896 5895 5894 5894 5893 5892 5891 5890 5889 5888 5887 5886 5886 5885 5885 5884 5884 5883 5882 5882 5881 5881 5880
5918 5918 5917 5917 5917 5916 5915 5914 5913 5912 5911 5909 5908 5907 5905 5904 5902 5901 5900 5900 5899 5899 5898 5898 5897 5897 5896 5895 5895 5894 5893 5892 5890 5889 5888 5887 5886 5885 5885 5884 5884 5883 5883 5882 5881 5880 5880 5879 5878
5918 5918 5918 5918 5917 5917 5916 5915 5914 5913 5911 5910 5909 5908 5906 5905 5904 5902 5902 5901 5900 5900 5899 5898 5898 5897 5896 5896 5895 5894 5892 5891 5890 5889 5887 5886 5885 5885 5884 5883 5883 5882 5882 5881 5880 5879 5878 5877 5876
5918 5918 5918 5918 5917 5917 5916 5916 5915 5913 5912 5911 5910 5909 5907 5906 5905 5903 5903 5902 5901 5901 5900 5899 5898 5897 5897 5895 5895 5894 5892 5891 5890 5888 5887 5886 5885 5884 5883 5883 5882 5881 5881 5880 5879 5878 5876 5875 5874
5918 5918 5917 5917 5917 5917 5917 5916 5915 5914 5912 5911 5910 5909 5908 5907 5906 5904 5903 5902 5902 5901 5900 5899 5898 5898 5897 5895 5895 5893 5892 5891 5890 5888 5887 5885 5884 5883 5882 5882 5881 5880 5879 5878 5877 5876 5875 5874 5873
5917 5917 5917 5917 5917 5917 5917 5916 5916 5914 5913 5912 5911 5909 5908 5908 5906 5905 5904 5903 5902 5901 5900 5900 5898 5897 5896 5895 5894 5893 5892 5891 5890 5888 5886 5885 5883 5882 5881 5880 5880 5879 5878 5877 5876 5875 5873 5872 5870
5916 5916 5916 5916 5916 5916 5916 5916 5916 5914 5913 5912 5911 5910 5908 5908 5907 5906 5904 5903 5902 5901 5901 5900 5898 5897 5896 5895 5894 5892 5891 5890 5889 5888 5886 5885 5883 5881 5880 5879 5878 5878 5877 5876 5874 5873 5871 5869 5868
5915 5915 5915 5915 5915 5915 5915 5915 5915 5913 5912 5911 5910 5909 5908 5907 5906 5905 5905 5903 5903 5902 5901 5900 5898 5897 5896 5895 5893 5892 5891 5889 5888 5887 5885 5883 5882 5880 5879 5878 5877 5876 5875 5874 5872 5870 5869 5867 5865
5913 5914 5914 5914 5913 5914 5913 5913 5914 5912 5911 5910 5909 5908 5907 5907 5906 5905 5904 5903 5902 5901 5900 5899 5898 5897 5896 5894 5893 5891 5889 5888 5887 5886 5884 5882 5881 5879 5878 5877 5876 5874 5873 5871 5870 5868 5866 5863 5862
5911 5912 5913 5912 5912 5912 5911 5911 5912 5911 5909 5909 5908 5907 5907 5906 5905 5904 5903 5902 5901 5900 5899 5898 5897 5896 5894 5893 5892 5890 5888 5886 5885 5884 5882 5880 5879 5877 5876 5875 5873 5872 5870 5868 5866 5864 5862 5860 5858
5908 5909 5910 5910 5909 5909 5909 5910 5910 5909 5907 5907 5906 5906 5905 5905 5904 5902 5901 5900 5900 5899 5898 5897 5895 5894 5893 5891 5890 5888 5887 5885 5883 5882 5880 5878 5876 5875 5873 5872 5870 5869 5867 5865 5863 5861 5858 5856 5854
5906 5906 5907 5906 5906 5906 5906 5906 5907 5906 5905 5904 5904 5904 5903 5903 5902 5901 5899 5899 5898 5897 5895 5894 5893 5892 5890 5889 5888 5886 5884 5882 5880 5879 5878 5875 5874 5872 5870 5868 5867 5865 5863 5861 5859 5857 5854 5852 5849
5902 5903 5903 5903 5903 5903 5903 5905 5904 5903 5902 5902 5901 5901 5900 5900 5899 5898 5897 5896 5895 5894 5893 5892 5890 5889 5887 5886 5885 5883 5882 5880 5878 5876 5874 5872 5870 5868 5867 5864 5862 5860 5858 5856 5854 5852 5849 5847 5845
5897 5898 5899 5899 5899 5899 5899 5903 5900 5900 5899 5898 5897 5897 5897 5896 5895 5895 5894 5893 5892 5891 5890 5889 5887 5886 5884 5883 5881 5880 5878 5876 5874 5873 5871 5869 5866 5864 5862 5860 5858 5856 5854 5851 5849 5847 5844 5842 5839